Time,TemperatureF,DewpointF,PressureIn,WindDirection,WindDirectionDegrees,WindSpeedMPH,WindSpeedGustMPH,Humidity,HourlyPrecipIn,Conditions,Clouds,dailyrainin,SoftwareType,DateUTC
2013-07-12 00:01:00,67.4,66.8,30.00,SSE,163,0.0,0.0,98,0.00,,BKN070,0.00,VWS V14.00,2013-07-12 04:01:00,
2013-07-12 00:02:00,67.4,66.8,30.00,SSE,163,0.0,0.0,98,0.00,,BKN070,0.00,VWS V14.00,2013-07-12 04:02:00,
2013-07-12 00:07:00,67.4,66.8,30.00,SSE,163,0.0,2.7,98,0.00,,OVC070,0.00,VWS V14.00,2013-07-12 04:07:00,
2013-07-12 00:12:00,67.4,66.8,30.00,SSE,163,0.0,0.0,98,0.00,,OVC070,0.00,VWS V14.00,2013-07-12 04:12:00,
2013-07-12 00:17:00,67.6,67.0,30.00,SSE,163,0.0,0.0,98,0.00,,OVC070,0.00,VWS V14.00,2013-07-12 04:17:00,
2013-07-12 00:22:00,67.4,66.8,30.00,SW,236,2.5,2.7,98,0.00,,OVC070,0.00,VWS V14.00,2013-07-12 04:22:00,
2013-07-12 00:27:00,67.0,66.4,30.00,NW,322,0.0,0.0,98,0.00,,OVC070,0.00,VWS V14.00,2013-07-12 04:27:00,
2013-07-12 00:32:00,67.0,66.4,30.00,NW,322,0.0,0.0,98,0.00,,BKN017,0.00,VWS V14.00,2013-07-12 04:32:00,
2013-07-12 00:37:00,67.2,66.6,30.00,NW,322,0.0,0.0,98,0.00,,BKN017,0.00,VWS V14.00,2013-07-12 04:37:00,
2013-07-12 00:43:00,67.0,66.4,30.00,NW,322,0.0,0.0,98,0.00,,BKN017,0.00,VWS V14.00,2013-07-12 04:43:00,
2013-07-12 00:48:00,67.0,66.4,30.00,NW,322,0.0,0.0,98,0.00,,BKN017,0.00,VWS V14.00,2013-07-12 04:48:00,
2013-07-12 00:53:00,66.8,66.2,30.00,NW,322,0.0,0.0,98,0.00,,BKN017,0.00,VWS V14.00,2013-07-12 04:53:00,
2013-07-12 00:58:00,66.8,66.2,30.00,NW,322,0.0,0.0,98,0.00,,BKN017,0.00,VWS V14.00,2013-07-12 04:58:00,
2013-07-12 01:03:00,67.0,66.4,30.00,NW,322,0.0,0.0,98,0.00,,BKN011,0.00,VWS V14.00,2013-07-12 05:03:00,
2013-07-12 01:08:00,67.0,66.4,30.00,NW,322,0.0,0.0,98,0.00,,BKN011,0.00,VWS V14.00,2013-07-12 05:08:00,
2013-07-12 01:13:00,67.0,66.4,30.00,NW,322,0.0,0.0,98,0.00,,BKN011,0.00,VWS V14.00,2013-07-12 05:13:00,
2013-07-12 01:18:00,67.0,66.4,30.00,NW,322,0.0,0.0,98,0.00,,SCT016,0.00,VWS V14.00,2013-07-12 05:18:00,
2013-07-12 01:23:00,66.8,66.2,30.00,NW,322,0.0,0.0,98,0.00,,SCT016,0.00,VWS V14.00,2013-07-12 05:23:00,
2013-07-12 01:28:00,66.8,66.2,30.00,NW,322,0.0,0.0,98,0.00,,SCT016,0.00,VWS V14.00,2013-07-12 05:28:00,
2013-07-12 01:33:00,66.8,66.2,30.00,NW,322,0.0,0.0,98,0.00,,SCT016,0.00,VWS V14.00,2013-07-12 05:33:00,
2013-07-12 01:39:00,66.8,66.2,30.00,NW,322,0.0,0.0,98,0.00,,SCT016,0.00,VWS V14.00,2013-07-12 05:39:00,
2013-07-12 01:43:00,66.8,66.2,30.00,NW,322,0.0,0.0,98,0.00,,SCT016,0.00,VWS V14.00,2013-07-12 05:43:00,
2013-07-12 01:49:00,66.6,66.1,30.00,NW,322,0.0,0.0,98,0.00,,SCT016,0.00,VWS V14.00,2013-07-12 05:49:00,
2013-07-12 01:54:00,66.6,66.1,30.00,NW,322,0.0,0.0,98,0.00,,SCT016,0.00,VWS V14.00,2013-07-12 05:54:00,
2013-07-12 01:59:00,66.6,66.1,30.00,NW,322,0.0,0.0,98,0.00,,SCT016,0.00,VWS V14.00,2013-07-12 05:59:00,
2013-07-12 02:04:00,66.6,66.1,30.00,NW,322,0.0,0.0,98,0.00,,BKN085,0.00,VWS V14.00,2013-07-12 06:04:00,
2013-07-12 02:09:00,66.6,66.1,30.00,NW,322,0.0,0.0,98,0.00,,BKN085,0.00,VWS V14.00,2013-07-12 06:09:00,
2013-07-12 02:14:00,66.6,66.1,30.00,NW,322,0.0,0.0,98,0.00,,BKN085,0.00,VWS V14.00,2013-07-12 06:14:00,
2013-07-12 02:19:00,66.6,66.1,30.00,NE,49,3.0,3.8,98,0.00,,BKN085,0.00,VWS V14.00,2013-07-12 06:19:00,
2013-07-12 02:24:00,66.6,66.1,30.00,SSW,205,3.0,3.2,98,0.00,,BKN085,0.00,VWS V14.00,2013-07-12 06:24:00,
2013-07-12 02:29:00,66.4,65.9,30.00,ESE,106,0.0,0.0,98,0.00,,BKN085,0.00,VWS V14.00,2013-07-12 06:29:00,
2013-07-12 02:35:00,66.3,65.7,30.00,ESE,106,0.0,0.0,98,0.00,,BKN085,0.00,VWS V14.00,2013-07-12 06:35:00,
2013-07-12 02:40:00,66.3,65.7,30.00,ESE,106,0.0,0.0,98,0.00,,BKN085,0.00,VWS V14.00,2013-07-12 06:40:00,
2013-07-12 02:45:00,66.3,65.7,30.00,SE,141,2.5,2.7,98,0.00,,BKN085,0.00,VWS V14.00,2013-07-12 06:45:00,
2013-07-12 02:50:00,66.1,65.5,30.00,SE,141,0.0,0.0,98,0.00,,SCT055,0.00,VWS V14.00,2013-07-12 06:50:00,
2013-07-12 02:55:00,66.1,65.5,30.00,SE,141,0.0,0.0,98,0.00,,SCT055,0.00,VWS V14.00,2013-07-12 06:55:00,
2013-07-12 03:00:00,65.9,65.3,30.00,SE,141,0.0,0.0,98,0.00,,SCT055,0.00,VWS V14.00,2013-07-12 07:00:00,
2013-07-12 03:05:00,65.9,65.3,30.00,SE,141,0.0,0.0,98,0.00,,,0.00,VWS V14.00,2013-07-12 07:05:00,
2013-07-12 03:10:00,65.9,65.3,30.00,SSE,158,2.5,2.7,98,0.00,,,0.00,VWS V14.00,2013-07-12 07:10:00,
2013-07-12 03:15:00,65.7,65.1,30.00,South,169,0.0,0.0,98,0.00,,,0.00,VWS V14.00,2013-07-12 07:15:00,
2013-07-12 03:20:00,65.7,65.1,30.00,SE,144,2.5,3.2,98,0.00,,,0.00,VWS V14.00,2013-07-12 07:20:00,
2013-07-12 03:25:00,65.7,65.1,30.00,SSW,206,3.0,3.2,98,0.00,,,0.00,VWS V14.00,2013-07-12 07:25:00,
2013-07-12 03:30:00,65.5,64.9,30.00,ESE,105,0.0,0.0,98,0.00,,,0.00,VWS V14.00,2013-07-12 07:30:00,
2013-07-12 03:36:00,65.5,64.9,30.00,South,184,0.0,0.0,98,0.00,,,0.00,VWS V14.00,2013-07-12 07:36:00,
2013-07-12 03:41:00,65.5,64.9,30.00,SE,146,0.0,0.0,98,0.00,,,0.00,VWS V14.00,2013-07-12 07:41:00,
2013-07-12 03:46:00,65.5,64.9,30.00,WNW,291,0.0,0.0,98,0.00,,OVC027,0.00,VWS V14.00,2013-07-12 07:46:00,
2013-07-12 03:51:00,65.3,64.8,30.00,West,265,3.9,4.3,98,0.00,,OVC027,0.00,VWS V14.00,2013-07-12 07:51:00,
2013-07-12 03:56:00,65.3,64.8,30.00,ENE,57,0.0,3.8,98,0.00,,OVC027,0.00,VWS V14.00,2013-07-12 07:56:00,
2013-07-12 04:01:00,65.3,64.8,30.00,SSE,152,2.5,3.8,98,0.00,,OVC027,0.00,VWS V14.00,2013-07-12 08:01:00,
2013-07-12 04:06:00,65.2,64.6,30.00,NW,324,0.0,3.2,98,0.00,,BKN027,0.00,VWS V14.00,2013-07-12 08:06:00,
2013-07-12 04:11:00,65.2,64.6,30.00,NE,51,0.0,0.0,98,0.00,,BKN027,0.00,VWS V14.00,2013-07-12 08:11:00,
2013-07-12 04:16:00,65.0,64.4,30.00,ESE,113,0.0,0.0,98,0.00,,BKN027,0.00,VWS V14.00,2013-07-12 08:16:00,
2013-07-12 04:21:00,65.0,64.4,30.00,SSE,150,3.9,4.3,98,0.00,,BKN027,0.00,VWS V14.00,2013-07-12 08:21:00,
2013-07-12 04:26:00,64.8,64.2,30.00,South,170,0.0,0.0,98,0.00,,BKN027,0.00,VWS V14.00,2013-07-12 08:26:00,
2013-07-12 04:31:00,64.8,64.2,30.00,East,84,0.0,0.0,98,0.00,,,0.00,VWS V14.00,2013-07-12 08:31:00,
2013-07-12 04:37:00,64.6,64.0,30.00,East,84,0.0,0.0,98,0.00,,,0.00,VWS V14.00,2013-07-12 08:37:00,
2013-07-12 04:42:00,64.6,64.0,30.00,SSW,204,4.4,4.8,98,0.00,,,0.00,VWS V14.00,2013-07-12 08:42:00,
2013-07-12 04:47:00,64.6,64.0,30.00,NNE,22,0.0,0.0,98,0.00,,,0.00,VWS V14.00,2013-07-12 08:47:00,
2013-07-12 04:52:00,64.4,63.8,30.00,ESE,112,0.0,0.0,98,0.00,,,0.00,VWS V14.00,2013-07-12 08:52:00,
2013-07-12 04:57:00,64.4,63.8,30.00,SE,129,0.0,0.0,98,0.00,,,0.00,VWS V14.00,2013-07-12 08:57:00,
2013-07-12 05:02:00,64.4,63.8,30.00,SE,129,0.0,0.0,98,0.00,,,0.00,VWS V14.00,2013-07-12 09:02:00,
2013-07-12 05:07:00,64.4,63.8,30.00,South,191,2.5,3.8,98,0.00,,,0.00,VWS V14.00,2013-07-12 09:07:00,
2013-07-12 05:12:00,64.4,63.8,30.00,ESE,116,0.0,0.0,98,0.00,,,0.00,VWS V14.00,2013-07-12 09:12:00,
2013-07-12 05:17:00,64.4,63.8,30.00,ESE,116,0.0,0.0,98,0.00,,,0.00,VWS V14.00,2013-07-12 09:17:00,
2013-07-12 05:22:00,64.2,63.7,30.00,ESE,116,0.0,0.0,98,0.00,,,0.00,VWS V14.00,2013-07-12 09:22:00,
2013-07-12 05:28:00,64.2,63.7,30.00,ESE,116,0.0,0.0,98,0.00,,,0.00,VWS V14.00,2013-07-12 09:28:00,
2013-07-12 05:33:00,64.2,63.7,30.00,ESE,113,0.0,0.0,98,0.00,,,0.00,VWS V14.00,2013-07-12 09:33:00,
2013-07-12 05:38:00,64.2,63.7,30.00,ESE,113,0.0,0.0,98,0.00,,,0.00,VWS V14.00,2013-07-12 09:38:00,
2013-07-12 05:43:00,64.2,63.7,30.00,ESE,113,0.0,0.0,98,0.00,,,0.00,VWS V14.00,2013-07-12 09:43:00,
2013-07-12 05:48:00,64.2,63.7,30.00,SSE,159,2.5,2.7,98,0.00,,,0.00,VWS V14.00,2013-07-12 09:48:00,
2013-07-12 05:53:00,64.2,63.7,30.00,South,181,0.0,2.7,98,0.00,,,0.00,VWS V14.00,2013-07-12 09:53:00,
2013-07-12 05:58:00,64.0,63.5,30.00,South,185,3.0,3.8,98,0.00,,,0.00,VWS V14.00,2013-07-12 09:58:00,
2013-07-12 06:03:00,64.0,63.5,30.03,South,185,0.0,0.0,98,0.00,,,0.00,VWS V14.00,2013-07-12 10:03:00,
2013-07-12 06:08:00,64.0,63.5,30.03,South,185,0.0,0.0,98,0.00,,,0.00,VWS V14.00,2013-07-12 10:08:00,
2013-07-12 06:13:00,64.0,63.5,30.03,South,185,0.0,0.0,98,0.00,,,0.00,VWS V14.00,2013-07-12 10:13:00,
2013-07-12 06:19:00,64.0,63.5,30.03,South,185,0.0,0.0,98,0.00,,,0.00,VWS V14.00,2013-07-12 10:19:00,
2013-07-12 06:23:00,64.0,63.5,30.03,South,185,0.0,0.0,98,0.00,,,0.00,VWS V14.00,2013-07-12 10:23:00,
2013-07-12 06:29:00,64.0,63.5,30.03,NW,317,0.0,0.0,98,0.00,,,0.00,VWS V14.00,2013-07-12 10:29:00,
2013-07-12 06:34:00,64.0,63.5,30.03,NW,317,0.0,0.0,98,0.00,,,0.00,VWS V14.00,2013-07-12 10:34:00,
2013-07-12 06:39:00,64.0,63.5,30.03,NW,317,0.0,0.0,98,0.00,,,0.00,VWS V14.00,2013-07-12 10:39:00,
2013-07-12 06:44:00,63.8,63.3,30.03,NW,317,0.0,0.0,98,0.00,,,0.00,VWS V14.00,2013-07-12 10:44:00,
2013-07-12 06:49:00,63.8,63.3,30.03,NW,317,0.0,0.0,98,0.00,,,0.00,VWS V14.00,2013-07-12 10:49:00,
2013-07-12 06:54:00,63.8,63.3,30.03,NW,317,2.5,2.7,98,0.00,,,0.00,VWS V14.00,2013-07-12 10:54:00,
2013-07-12 06:59:00,63.8,63.3,30.03,NW,317,2.5,3.2,98,0.00,,,0.00,VWS V14.00,2013-07-12 10:59:00,
2013-07-12 07:04:00,63.8,63.3,30.03,SE,144,0.0,0.0,98,0.00,,,0.00,VWS V14.00,2013-07-12 11:04:00,
2013-07-12 07:09:00,63.8,63.3,30.03,SE,144,0.0,0.0,98,0.00,,,0.00,VWS V14.00,2013-07-12 11:09:00,
2013-07-12 07:14:00,63.7,63.1,30.03,SE,144,0.0,0.0,98,0.00,,,0.00,VWS V14.00,2013-07-12 11:14:00,
2013-07-12 07:19:00,63.7,63.1,30.03,SE,144,0.0,0.0,98,0.00,,,0.00,VWS V14.00,2013-07-12 11:19:00,
2013-07-12 07:25:00,63.8,63.3,30.03,SE,144,0.0,0.0,98,0.00,,,0.00,VWS V14.00,2013-07-12 11:25:00,
2013-07-12 07:30:00,63.8,63.3,30.03,SE,144,0.0,0.0,98,0.00,,,0.00,VWS V14.00,2013-07-12 11:30:00,
2013-07-12 07:35:00,63.8,63.3,30.03,SE,144,0.0,0.0,98,0.00,,,0.00,VWS V14.00,2013-07-12 11:35:00,
2013-07-12 07:40:00,63.8,63.3,30.03,SSE,150,0.0,0.0,98,0.00,,,0.00,VWS V14.00,2013-07-12 11:40:00,
2013-07-12 07:45:00,63.8,63.3,30.03,SSE,151,0.0,0.0,98,0.00,,,0.00,VWS V14.00,2013-07-12 11:45:00,
2013-07-12 07:50:00,63.8,63.3,30.03,SSE,151,0.0,0.0,98,0.00,,,0.00,VWS V14.00,2013-07-12 11:50:00,
2013-07-12 07:55:00,64.0,63.5,30.03,SSE,151,0.0,0.0,98,0.00,,,0.00,VWS V14.00,2013-07-12 11:55:00,
2013-07-12 08:00:00,64.0,63.5,30.03,SSE,151,0.0,0.0,98,0.00,,,0.00,VWS V14.00,2013-07-12 12:00:00,
2013-07-12 08:05:00,64.0,63.5,30.03,SSW,204,0.0,2.7,98,0.00,,,0.00,VWS V14.00,2013-07-12 12:05:00,
2013-07-12 08:11:00,64.0,63.5,30.03,SW,234,0.0,0.0,98,0.00,,,0.00,VWS V14.00,2013-07-12 12:11:00,
2013-07-12 08:16:00,64.0,63.5,30.03,SW,234,0.0,0.0,98,0.00,,,0.00,VWS V14.00,2013-07-12 12:16:00,
2013-07-12 08:21:00,64.0,63.5,30.03,NNW,330,0.0,3.8,98,0.00,,OVC031,0.00,VWS V14.00,2013-07-12 12:21:00,
2013-07-12 08:26:00,64.2,63.7,30.03,ENE,68,2.5,3.8,98,0.00,,OVC031,0.00,VWS V14.00,2013-07-12 12:26:00,
2013-07-12 08:31:00,64.2,63.7,30.03,SE,146,0.0,3.8,98,0.00,,OVC031,0.00,VWS V14.00,2013-07-12 12:31:00,
2013-07-12 08:36:00,64.4,63.8,30.03,East,91,0.0,0.0,98,0.00,,OVC031,0.00,VWS V14.00,2013-07-12 12:36:00,
2013-07-12 08:41:00,64.4,63.8,30.03,East,91,0.0,0.0,98,0.00,,OVC031,0.00,VWS V14.00,2013-07-12 12:41:00,
2013-07-12 08:46:00,64.6,64.0,30.03,East,91,0.0,0.0,98,0.00,,OVC031,0.00,VWS V14.00,2013-07-12 12:46:00,
2013-07-12 08:51:00,64.8,64.2,30.03,South,177,0.0,0.0,98,0.00,,OVC031,0.00,VWS V14.00,2013-07-12 12:51:00,
2013-07-12 08:56:00,65.0,64.4,30.03,SSW,199,0.0,0.0,98,0.00,,OVC031,0.00,VWS V14.00,2013-07-12 12:56:00,
2013-07-12 09:01:00,65.2,64.6,30.03,SSW,199,0.0,0.0,98,0.00,,OVC031,0.00,VWS V14.00,2013-07-12 13:01:00,
2013-07-12 09:07:00,65.2,64.6,30.03,SSW,207,2.5,2.7,98,0.00,,OVC028,0.00,VWS V14.00,2013-07-12 13:07:00,
2013-07-12 09:12:00,65.3,64.8,30.03,SSW,212,0.0,0.0,98,0.00,,OVC028,0.00,VWS V14.00,2013-07-12 13:12:00,
2013-07-12 09:17:00,65.7,64.2,30.03,WNW,284,0.0,0.0,95,0.00,,OVC028,0.00,VWS V14.00,2013-07-12 13:17:00,
2013-07-12 09:22:00,65.9,63.8,30.03,WNW,284,0.0,0.0,93,0.00,,OVC028,0.00,VWS V14.00,2013-07-12 13:22:00,
2013-07-12 09:27:00,66.3,64.2,30.03,WNW,284,0.0,0.0,93,0.00,,OVC028,0.00,VWS V14.00,2013-07-12 13:27:00,
2013-07-12 09:32:00,66.4,64.4,30.03,WSW,251,0.0,0.0,93,0.00,,OVC030,0.00,VWS V14.00,2013-07-12 13:32:00,
2013-07-12 09:37:00,66.4,64.1,30.03,NW,320,0.0,3.2,92,0.00,,OVC030,0.00,VWS V14.00,2013-07-12 13:37:00,
2013-07-12 09:42:00,66.6,63.3,30.03,South,173,0.0,2.7,89,0.00,,OVC030,0.00,VWS V14.00,2013-07-12 13:42:00,
2013-07-12 09:47:00,66.8,63.5,30.06,SSW,210,0.0,0.0,89,0.00,,OVC030,0.00,VWS V14.00,2013-07-12 13:47:00,
2013-07-12 09:52:00,67.4,63.4,30.06,NNW,330,0.0,3.2,87,0.00,,OVC030,0.00,VWS V14.00,2013-07-12 13:52:00,
2013-07-12 09:57:00,67.9,62.9,30.06,NNW,342,3.0,3.2,84,0.00,,OVC030,0.00,VWS V14.00,2013-07-12 13:57:00,
2013-07-12 10:02:00,67.9,62.9,30.06,NNW,340,2.5,3.2,84,0.00,,OVC037,0.00,VWS V14.00,2013-07-12 14:02:00,
2013-07-12 10:07:00,68.1,64.4,30.06,WSW,242,0.0,0.0,88,0.00,,OVC037,0.00,VWS V14.00,2013-07-12 14:07:00,
2013-07-12 10:12:00,68.1,64.1,30.06,NNW,327,5.4,5.9,87,0.00,,OVC037,0.00,VWS V14.00,2013-07-12 14:12:00,
2013-07-12 10:17:00,68.3,64.0,30.06,SSE,148,2.5,3.8,86,0.00,,OVC037,0.00,VWS V14.00,2013-07-12 14:17:00,
2013-07-12 10:22:00,68.3,64.3,30.06,WNW,286,2.5,3.2,87,0.00,,OVC037,0.00,VWS V14.00,2013-07-12 14:22:00,
2013-07-12 10:28:00,68.5,63.8,30.06,WNW,285,0.0,0.0,85,0.00,,OVC037,0.00,VWS V14.00,2013-07-12 14:28:00,
2013-07-12 10:33:00,68.5,62.8,30.06,East,88,0.0,0.0,82,0.00,,OVC040,0.00,VWS V14.00,2013-07-12 14:33:00,
2013-07-12 10:38:00,68.7,63.7,30.06,ENE,65,3.0,3.2,84,0.00,,OVC040,0.00,VWS V14.00,2013-07-12 14:38:00,
2013-07-12 10:43:00,68.7,63.7,30.06,NW,320,3.4,3.8,84,0.00,,OVC040,0.00,VWS V14.00,2013-07-12 14:43:00,
2013-07-12 10:48:00,68.8,63.5,30.06,North,4,3.0,3.8,83,0.00,,OVC040,0.00,VWS V14.00,2013-07-12 14:48:00,
2013-07-12 10:53:00,68.8,63.1,30.06,NE,39,0.0,2.7,82,0.00,,OVC040,0.00,VWS V14.00,2013-07-12 14:53:00,
2013-07-12 10:58:00,68.8,62.8,30.06,NW,323,3.9,4.3,81,0.00,,OVC040,0.00,VWS V14.00,2013-07-12 14:58:00,
2013-07-12 11:03:00,69.0,62.6,30.06,East,80,2.5,2.7,80,0.00,, +RA,0.00,VWS V14.00,2013-07-12 15:03:00,
2013-07-12 11:08:00,68.8,62.4,30.06,North,2,0.0,4.3,80,0.00,, +RA,0.00,VWS V14.00,2013-07-12 15:08:00,
2013-07-12 11:14:00,69.0,62.6,30.06,NW,320,0.0,0.0,80,0.00,, +RA,0.00,VWS V14.00,2013-07-12 15:14:00,
2013-07-12 11:19:00,69.0,63.0,30.06,ENE,77,3.4,3.8,81,0.00,,-RA,0.00,VWS V14.00,2013-07-12 15:19:00,
2013-07-12 11:24:00,69.2,63.5,30.06,North,4,3.4,3.8,82,0.00,,-RA,0.00,VWS V14.00,2013-07-12 15:24:00,
2013-07-12 11:29:00,69.6,63.2,30.06,NW,309,4.4,5.4,80,0.00,,-RA,0.00,VWS V14.00,2013-07-12 15:29:00,
2013-07-12 11:34:00,69.8,63.3,30.06,NW,306,3.0,3.2,80,0.00,,BKN070,0.00,VWS V14.00,2013-07-12 15:34:00,
2013-07-12 11:39:00,69.8,63.7,30.06,WSW,239,3.4,3.8,81,0.00,,BKN070,0.00,VWS V14.00,2013-07-12 15:39:00,
2013-07-12 11:44:00,70.2,63.3,30.06,ESE,115,3.0,3.2,79,0.00,,BKN070,0.00,VWS V14.00,2013-07-12 15:44:00,
2013-07-12 11:49:00,70.5,62.6,30.06,SW,234,0.0,4.8,76,0.00,,BKN070,0.00,VWS V14.00,2013-07-12 15:49:00,
2013-07-12 11:54:00,70.5,63.0,30.06,NE,51,0.0,3.2,77,0.00,,BKN070,0.00,VWS V14.00,2013-07-12 15:54:00,
2013-07-12 11:59:00,70.3,60.9,30.06,ESE,106,2.5,2.7,72,0.00,,BKN070,0.00,VWS V14.00,2013-07-12 15:59:00,
2013-07-12 12:05:00,70.5,61.8,30.06,SSE,166,3.0,3.2,74,0.00,,BKN075,0.00,VWS V14.00,2013-07-12 16:05:00,
2013-07-12 12:10:00,70.5,62.6,30.06,NE,41,4.4,4.8,76,0.00,,BKN075,0.00,VWS V14.00,2013-07-12 16:10:00,
2013-07-12 12:15:00,71.1,63.5,30.06,ENE,76,3.0,3.2,77,0.00,,BKN075,0.00,VWS V14.00,2013-07-12 16:15:00,
2013-07-12 12:20:00,71.1,62.8,30.06,SE,140,3.9,4.3,75,0.00,,BKN075,0.00,VWS V14.00,2013-07-12 16:20:00,
2013-07-12 12:25:00,71.3,61.4,30.06,ENE,60,0.0,2.7,71,0.00,,BKN075,0.00,VWS V14.00,2013-07-12 16:25:00,
2013-07-12 12:30:00,72.0,62.5,30.06,East,89,3.0,3.2,72,0.00,,BKN075,0.00,VWS V14.00,2013-07-12 16:30:00,
2013-07-12 12:35:00,72.2,63.5,30.06,North,10,4.4,4.8,74,0.00,,BKN075,0.00,VWS V14.00,2013-07-12 16:35:00,
2013-07-12 12:40:00,72.8,62.8,30.06,ENE,76,2.5,4.8,71,0.00,,BKN075,0.00,VWS V14.00,2013-07-12 16:40:00,
2013-07-12 12:45:00,73.1,62.3,30.06,West,278,2.5,4.8,69,0.00,,BKN075,0.00,VWS V14.00,2013-07-12 16:45:00,
2013-07-12 12:50:00,72.6,61.8,30.06,NNE,27,2.5,3.8,69,0.00,,BKN075,0.00,VWS V14.00,2013-07-12 16:50:00,
2013-07-12 12:55:00,72.4,61.6,30.06,East,84,2.5,3.8,69,0.00,,BKN075,0.00,VWS V14.00,2013-07-12 16:55:00,
2013-07-12 13:00:00,72.4,62.5,30.06,ENE,66,0.0,3.8,71,0.00,,BKN075,0.00,VWS V14.00,2013-07-12 17:00:00,
2013-07-12 13:05:00,72.6,61.8,30.06,ESE,105,0.0,5.9,69,0.00,,FEW017,0.00,VWS V14.00,2013-07-12 17:05:00,
2013-07-12 13:10:00,72.8,62.0,30.06,SSW,204,3.0,3.2,69,0.00,,FEW017,0.00,VWS V14.00,2013-07-12 17:10:00,
2013-07-12 13:15:00,72.6,61.4,30.06,NNE,25,3.9,4.8,68,0.00,,FEW017,0.00,VWS V14.00,2013-07-12 17:15:00,
2013-07-12 13:21:00,72.8,62.0,30.06,ENE,75,4.4,4.8,69,0.00,,FEW017,0.00,VWS V14.00,2013-07-12 17:21:00,
2013-07-12 13:26:00,73.3,62.1,30.06,WSW,238,3.4,4.8,68,0.00,,FEW017,0.00,VWS V14.00,2013-07-12 17:26:00,
2013-07-12 13:31:00,73.5,61.9,30.06,NW,308,4.4,4.8,67,0.00,,FEW017,0.00,VWS V14.00,2013-07-12 17:31:00,
2013-07-12 13:36:00,73.3,61.7,30.06,West,266,6.9,7.5,67,0.00,,FEW017,0.00,VWS V14.00,2013-07-12 17:36:00,
2013-07-12 13:41:00,73.3,61.3,30.06,ENE,64,3.0,4.3,66,0.00,,FEW017,0.00,VWS V14.00,2013-07-12 17:41:00,
2013-07-12 13:46:00,73.5,61.5,30.06,NNW,332,0.0,3.8,66,0.00,,FEW017,0.00,VWS V14.00,2013-07-12 17:46:00,
2013-07-12 13:52:00,74.1,62.8,30.06,ESE,113,3.0,4.8,68,0.00,,FEW017,0.00,VWS V14.00,2013-07-12 17:52:00,
2013-07-12 13:57:00,74.4,62.3,30.06,NW,315,5.4,5.9,66,0.00,,FEW017,0.00,VWS V14.00,2013-07-12 17:57:00,
2013-07-12 14:03:00,74.6,62.5,30.06,NW,306,5.4,5.9,66,0.00,,BKN036,0.00,VWS V14.00,2013-07-12 18:03:00,
2013-07-12 14:08:00,74.6,62.1,30.06,West,277,3.4,4.8,65,0.00,,BKN036,0.00,VWS V14.00,2013-07-12 18:08:00,
2013-07-12 14:13:00,74.4,59.6,30.06,South,183,3.4,7.0,60,0.00,,BKN036,0.00,VWS V14.00,2013-07-12 18:13:00,
2013-07-12 14:18:00,74.6,61.2,30.06,SSW,207,3.4,4.3,63,0.00,,OVC034,0.00,VWS V14.00,2013-07-12 18:18:00,
2013-07-12 14:23:00,74.6,61.6,30.06,ESE,122,3.9,4.3,64,0.00,,OVC034,0.00,VWS V14.00,2013-07-12 18:23:00,
2013-07-12 14:29:00,74.4,62.3,30.06,West,259,3.0,6.4,66,0.00,,OVC034,0.00,VWS V14.00,2013-07-12 18:29:00,
2013-07-12 14:34:00,74.2,62.6,30.06,North,353,3.0,3.2,67,0.00,,BKN020,0.00,VWS V14.00,2013-07-12 18:34:00,
2013-07-12 14:39:00,74.2,60.8,30.06,South,177,3.0,4.3,63,0.00,,BKN020,0.00,VWS V14.00,2013-07-12 18:39:00,
2013-07-12 14:44:00,74.8,61.4,30.06,NW,320,3.4,4.8,63,0.00,,BKN020,0.00,VWS V14.00,2013-07-12 18:44:00,
2013-07-12 14:49:00,74.2,61.7,30.06,NNW,344,0.0,2.7,65,0.00,,BKN020,0.00,VWS V14.00,2013-07-12 18:49:00,
2013-07-12 14:54:00,74.2,61.3,30.06,East,98,3.0,3.2,64,0.00,,BKN020,0.00,VWS V14.00,2013-07-12 18:54:00,
2013-07-12 14:59:00,74.1,60.7,30.06,SSW,195,3.0,3.2,63,0.00,,BKN020,0.00,VWS V14.00,2013-07-12 18:59:00,
2013-07-12 15:04:00,74.4,61.5,30.06,NE,44,3.4,3.8,64,0.00,,BKN026,0.00,VWS V14.00,2013-07-12 19:04:00,
2013-07-12 15:09:00,74.1,61.1,30.06,NE,48,0.0,6.4,64,0.00,,BKN026,0.00,VWS V14.00,2013-07-12 19:09:00,
2013-07-12 15:14:00,74.2,60.4,30.06,SW,220,2.5,3.2,62,0.00,,BKN026,0.00,VWS V14.00,2013-07-12 19:14:00,
2013-07-12 15:19:00,74.1,61.5,30.06,NNE,15,0.0,4.3,65,0.00,,BKN041,0.00,VWS V14.00,2013-07-12 19:19:00,
2013-07-12 15:24:00,74.2,62.2,30.06,SW,224,0.0,0.0,66,0.00,,BKN041,0.00,VWS V14.00,2013-07-12 19:24:00,
2013-07-12 15:30:00,73.9,61.8,30.06,ESE,115,3.0,3.2,66,0.00,,BKN041,0.00,VWS V14.00,2013-07-12 19:30:00,
2013-07-12 15:35:00,73.7,61.6,30.06,WNW,302,0.0,0.0,66,0.00,,BKN041,0.00,VWS V14.00,2013-07-12 19:35:00,
2013-07-12 15:40:00,74.4,62.3,30.06,WNW,300,4.4,4.8,66,0.00,,BKN041,0.00,VWS V14.00,2013-07-12 19:40:00,
2013-07-12 15:45:00,75.2,63.5,30.06,NW,318,6.9,7.5,67,0.00,,BKN041,0.00,VWS V14.00,2013-07-12 19:45:00,
2013-07-12 15:50:00,74.6,62.1,30.06,NNW,337,0.0,0.0,65,0.00,,BKN041,0.00,VWS V14.00,2013-07-12 19:50:00,
2013-07-12 15:55:00,73.9,62.2,30.06,East,86,2.5,4.3,67,0.00,,BKN041,0.00,VWS V14.00,2013-07-12 19:55:00,
2013-07-12 16:01:00,73.3,61.7,30.03,SW,231,2.5,3.8,67,0.00,,BKN041,0.00,VWS V14.00,2013-07-12 20:01:00,
2013-07-12 16:06:00,72.9,60.9,30.03,South,185,0.0,2.7,66,0.00,,CLR,0.00,VWS V14.00,2013-07-12 20:06:00,
2013-07-12 16:11:00,72.9,60.9,30.03,SW,221,3.0,3.2,66,0.00,,CLR,0.00,VWS V14.00,2013-07-12 20:11:00,
2013-07-12 16:17:00,72.8,60.3,30.06,NW,304,0.0,3.2,65,0.00,,CLR,0.00,VWS V14.00,2013-07-12 20:17:00,
2013-07-12 16:22:00,72.6,60.6,30.06,NW,304,0.0,0.0,66,0.00,,CLR,0.00,VWS V14.00,2013-07-12 20:22:00,
2013-07-12 16:27:00,72.6,61.0,30.06,NW,304,0.0,0.0,67,0.00,,CLR,0.00,VWS V14.00,2013-07-12 20:27:00,
2013-07-12 16:32:00,72.4,60.8,30.06,NW,304,0.0,0.0,67,0.00,,CLR,0.00,VWS V14.00,2013-07-12 20:32:00,
2013-07-12 16:37:00,72.2,61.1,30.06,NW,304,0.0,0.0,68,0.00,,CLR,0.00,VWS V14.00,2013-07-12 20:37:00,
2013-07-12 16:42:00,72.2,61.1,30.06,SSE,167,2.5,2.7,68,0.00,,CLR,0.00,VWS V14.00,2013-07-12 20:42:00,
2013-07-12 16:47:00,72.4,61.6,30.06,SSE,167,0.0,0.0,69,0.00,,CLR,0.00,VWS V14.00,2013-07-12 20:47:00,
2013-07-12 16:52:00,72.6,61.8,30.06,South,190,3.0,3.2,69,0.00,,CLR,0.00,VWS V14.00,2013-07-12 20:52:00,
2013-07-12 16:57:00,72.6,61.8,30.06,South,177,2.5,2.7,69,0.00,,CLR,0.00,VWS V14.00,2013-07-12 20:57:00,
2013-07-12 17:03:00,72.4,61.6,30.03,South,179,0.0,0.0,69,0.00,,FEW080,0.00,VWS V14.00,2013-07-12 21:03:00,
2013-07-12 17:08:00,72.4,61.2,30.03,South,179,0.0,0.0,68,0.00,,FEW080,0.00,VWS V14.00,2013-07-12 21:08:00,
2013-07-12 17:13:00,72.6,61.8,30.03,WSW,237,2.5,3.2,69,0.00,,FEW080,0.00,VWS V14.00,2013-07-12 21:13:00,
2013-07-12 17:19:00,72.4,61.6,30.03,WSW,237,2.5,2.7,69,0.00,,FEW080,0.00,VWS V14.00,2013-07-12 21:19:00,
2013-07-12 17:24:00,72.2,61.5,30.03,WSW,237,0.0,0.0,69,0.00,,FEW080,0.00,VWS V14.00,2013-07-12 21:24:00,
2013-07-12 17:30:00,72.0,62.1,30.03,WSW,237,0.0,0.0,71,0.00,,FEW080,0.00,VWS V14.00,2013-07-12 21:30:00,
2013-07-12 17:35:00,72.6,63.4,30.03,NW,323,3.4,3.8,73,0.00,,FEW080,0.00,VWS V14.00,2013-07-12 21:35:00,
2013-07-12 17:40:00,72.9,63.4,30.03,NNW,334,7.4,8.6,72,0.00,,FEW080,0.00,VWS V14.00,2013-07-12 21:40:00,
2013-07-12 17:45:00,73.1,62.8,30.03,NNW,330,5.9,7.5,70,0.00,,FEW080,0.00,VWS V14.00,2013-07-12 21:45:00,
2013-07-12 17:50:00,72.9,62.2,30.03,NNW,335,3.9,4.8,69,0.00,,FEW080,0.00,VWS V14.00,2013-07-12 21:50:00,
2013-07-12 17:55:00,72.6,62.2,30.03,North,357,2.5,3.2,70,0.00,,FEW080,0.00,VWS V14.00,2013-07-12 21:55:00,
2013-07-12 18:00:00,72.4,62.5,30.03,SW,234,3.0,3.2,71,0.00,,FEW080,0.00,VWS V14.00,2013-07-12 22:00:00,
2013-07-12 18:06:00,72.0,62.5,30.03,North,9,0.0,2.7,72,0.00,,RA,0.00,VWS V14.00,2013-07-12 22:06:00,
2013-07-12 18:11:00,71.8,63.5,30.03,North,9,0.0,0.0,75,0.00,,RA,0.00,VWS V14.00,2013-07-12 22:11:00,
2013-07-12 18:16:00,71.8,63.1,30.03,North,9,0.0,0.0,74,0.00,,RA,0.00,VWS V14.00,2013-07-12 22:16:00,
2013-07-12 18:21:00,71.8,62.7,30.03,WNW,297,0.0,3.2,73,0.00,,RA,0.00,VWS V14.00,2013-07-12 22:21:00,
2013-07-12 18:27:00,71.8,62.7,30.03,SE,143,0.0,0.0,73,0.00,,RA,0.00,VWS V14.00,2013-07-12 22:27:00,
2013-07-12 18:32:00,71.6,61.7,30.06,SE,143,0.0,0.0,71,0.00,,RA,0.00,VWS V14.00,2013-07-12 22:32:00,
2013-07-12 18:37:00,71.6,61.7,30.06,ESE,119,0.0,0.0,71,0.00,,RA,0.00,VWS V14.00,2013-07-12 22:37:00,
2013-07-12 18:42:00,71.4,61.6,30.06,ESE,119,0.0,0.0,71,0.00,,RA,0.00,VWS V14.00,2013-07-12 22:42:00,
2013-07-12 18:47:00,71.4,61.6,30.06,ESE,119,0.0,0.0,71,0.00,,RA,0.00,VWS V14.00,2013-07-12 22:47:00,
2013-07-12 18:52:00,71.3,61.4,30.06,ESE,119,0.0,0.0,71,0.00,,RA,0.00,VWS V14.00,2013-07-12 22:52:00,
2013-07-12 18:57:00,71.3,61.8,30.06,West,263,2.5,2.7,72,0.00,,RA,0.00,VWS V14.00,2013-07-12 22:57:00,
2013-07-12 19:03:00,71.3,62.2,30.06,West,263,0.0,0.0,73,0.00,,-RA,0.00,VWS V14.00,2013-07-12 23:03:00,
2013-07-12 19:08:00,71.3,62.2,30.06,West,263,0.0,0.0,73,0.00,,-RA,0.00,VWS V14.00,2013-07-12 23:08:00,
2013-07-12 19:13:00,70.9,61.8,30.06,West,263,0.0,0.0,73,0.00,,-RA,0.00,VWS V14.00,2013-07-12 23:13:00,
2013-07-12 19:18:00,70.7,61.6,30.06,West,263,0.0,0.0,73,0.00,,-RA,0.00,VWS V14.00,2013-07-12 23:18:00,
2013-07-12 19:23:00,70.7,61.6,30.06,West,263,0.0,0.0,73,0.00,,-RA,0.00,VWS V14.00,2013-07-12 23:23:00,
2013-07-12 19:28:00,70.5,61.8,30.06,WSW,238,2.5,4.8,74,0.00,,-RA,0.00,VWS V14.00,2013-07-12 23:28:00,
2013-07-12 19:33:00,70.3,61.3,30.06,WSW,238,0.0,0.0,73,0.00,,-RA,0.00,VWS V14.00,2013-07-12 23:33:00,
2013-07-12 19:39:00,70.2,60.7,30.06,NW,310,0.0,3.2,72,0.00,,-RA,0.00,VWS V14.00,2013-07-12 23:39:00,
2013-07-12 19:44:00,70.0,60.5,30.06,NNE,29,0.0,0.0,72,0.00,,-RA,0.00,VWS V14.00,2013-07-12 23:44:00,
2013-07-12 19:49:00,70.0,60.5,30.06,SSW,212,0.0,0.0,72,0.00,,-RA,0.00,VWS V14.00,2013-07-12 23:49:00,
2013-07-12 19:54:00,69.8,60.4,30.06,WSW,251,0.0,0.0,72,0.00,,-RA,0.00,VWS V14.00,2013-07-12 23:54:00,
2013-07-12 19:59:00,69.8,60.8,30.06,WSW,251,0.0,0.0,73,0.00,,-RA,0.00,VWS V14.00,2013-07-12 23:59:00,
2013-07-12 20:04:00,69.6,60.2,30.06,NNW,339,3.4,3.8,72,0.00,,OVC110,0.00,VWS V14.00,2013-07-13 00:04:00,
2013-07-12 20:09:00,69.4,60.4,30.06,East,99,0.0,2.7,73,0.00,,OVC110,0.00,VWS V14.00,2013-07-13 00:09:00,
2013-07-12 20:14:00,69.2,60.6,30.06,NE,55,0.0,3.8,74,0.00,,OVC110,0.00,VWS V14.00,2013-07-13 00:14:00,
2013-07-12 20:20:00,69.0,60.4,30.09,NNE,24,0.0,3.2,74,0.00,,OVC110,0.00,VWS V14.00,2013-07-13 00:20:00,
2013-07-12 20:25:00,69.0,60.4,30.09,East,84,3.4,3.8,74,0.00,,OVC110,0.00,VWS V14.00,2013-07-13 00:25:00,
2013-07-12 20:30:00,69.0,60.4,30.09,NE,45,0.0,0.0,74,0.00,,OVC110,0.00,VWS V14.00,2013-07-13 00:30:00,
2013-07-12 20:35:00,68.7,60.8,30.09,SW,222,0.0,0.0,76,0.00,,OVC110,0.00,VWS V14.00,2013-07-13 00:35:00,
2013-07-12 20:40:00,68.5,60.3,30.09,North,357,0.0,3.2,75,0.00,,OVC110,0.00,VWS V14.00,2013-07-13 00:40:00,
2013-07-12 20:45:00,68.5,60.3,30.09,WNW,295,0.0,0.0,75,0.00,,OVC110,0.00,VWS V14.00,2013-07-13 00:45:00,
2013-07-12 20:50:00,68.3,60.5,30.09,WNW,295,0.0,0.0,76,0.00,,OVC110,0.00,VWS V14.00,2013-07-13 00:50:00,
2013-07-12 20:55:00,68.1,60.3,30.09,WSW,249,0.0,0.0,76,0.00,,OVC110,0.00,VWS V14.00,2013-07-13 00:55:00,
2013-07-12 21:00:00,68.1,60.6,30.09,WSW,249,0.0,0.0,77,0.00,,OVC110,0.00,VWS V14.00,2013-07-13 01:00:00,
2013-07-12 21:05:00,67.9,60.5,30.09,WSW,249,0.0,0.0,77,0.00,,OVC120,0.00,VWS V14.00,2013-07-13 01:05:00,
2013-07-12 21:11:00,67.9,60.5,30.09,SSW,197,0.0,0.0,77,0.00,,OVC120,0.00,VWS V14.00,2013-07-13 01:11:00,
2013-07-12 21:16:00,67.9,60.8,30.09,SSW,197,0.0,0.0,78,0.00,,OVC120,0.00,VWS V14.00,2013-07-13 01:16:00,
2013-07-12 21:21:00,67.7,60.6,30.09,SSW,197,0.0,0.0,78,0.00,,OVC120,0.00,VWS V14.00,2013-07-13 01:21:00,
2013-07-12 21:26:00,67.7,61.0,30.09,SSW,197,0.0,0.0,79,0.00,,OVC120,0.00,VWS V14.00,2013-07-13 01:26:00,
2013-07-12 21:31:00,67.6,60.8,30.09,SSW,197,0.0,0.0,79,0.00,,OVC120,0.00,VWS V14.00,2013-07-13 01:31:00,
2013-07-12 21:37:00,67.6,60.8,30.09,SSW,197,0.0,0.0,79,0.00,,OVC120,0.00,VWS V14.00,2013-07-13 01:37:00,
2013-07-12 21:42:00,67.6,60.8,30.09,SSW,197,0.0,0.0,79,0.00,,OVC120,0.00,VWS V14.00,2013-07-13 01:42:00,
2013-07-12 21:47:00,67.4,60.3,30.09,SSW,197,0.0,0.0,78,0.00,,OVC120,0.00,VWS V14.00,2013-07-13 01:47:00,
2013-07-12 21:53:00,67.4,60.6,30.09,SSW,197,0.0,0.0,79,0.00,,OVC120,0.00,VWS V14.00,2013-07-13 01:53:00,
2013-07-12 21:58:00,67.4,60.6,30.09,SSW,197,2.5,2.7,79,0.00,,OVC120,0.00,VWS V14.00,2013-07-13 01:58:00,
2013-07-12 22:03:00,67.2,60.5,30.09,West,271,0.0,0.0,79,0.00,,SCT050,0.00,VWS V14.00,2013-07-13 02:03:00,
2013-07-12 22:08:00,67.2,60.8,30.09,West,271,0.0,0.0,80,0.00,,SCT050,0.00,VWS V14.00,2013-07-13 02:08:00,
2013-07-12 22:13:00,67.2,60.5,30.09,West,271,0.0,0.0,79,0.00,,SCT050,0.00,VWS V14.00,2013-07-13 02:13:00,
2013-07-12 22:18:00,67.4,61.0,30.09,West,271,0.0,0.0,80,0.00,,SCT050,0.00,VWS V14.00,2013-07-13 02:18:00,
2013-07-12 22:24:00,67.4,61.3,30.09,West,271,0.0,0.0,81,0.00,,SCT050,0.00,VWS V14.00,2013-07-13 02:24:00,
2013-07-12 22:29:00,67.4,61.3,30.09,West,271,0.0,0.0,81,0.00,,SCT050,0.00,VWS V14.00,2013-07-13 02:29:00,
2013-07-12 22:34:00,67.2,61.2,30.12,West,271,0.0,0.0,81,0.00,,SCT050,0.00,VWS V14.00,2013-07-13 02:34:00,
2013-07-12 22:39:00,67.2,61.2,30.12,West,271,0.0,0.0,81,0.00,,SCT050,0.00,VWS V14.00,2013-07-13 02:39:00,
2013-07-12 22:44:00,67.2,61.2,30.12,West,271,0.0,0.0,81,0.00,,SCT050,0.00,VWS V14.00,2013-07-13 02:44:00,
2013-07-12 22:49:00,67.2,61.2,30.12,West,271,0.0,0.0,81,0.00,,SCT050,0.00,VWS V14.00,2013-07-13 02:49:00,
2013-07-12 22:54:00,67.2,61.5,30.12,West,271,0.0,0.0,82,0.00,,SCT050,0.00,VWS V14.00,2013-07-13 02:54:00,
2013-07-12 22:59:00,67.0,61.3,30.12,West,271,0.0,0.0,82,0.00,,SCT050,0.00,VWS V14.00,2013-07-13 02:59:00,
2013-07-12 23:05:00,67.0,61.0,30.12,West,271,0.0,0.0,81,0.00,,FEW029,0.00,VWS V14.00,2013-07-13 03:05:00,
2013-07-12 23:10:00,67.0,61.3,30.12,West,270,0.0,0.0,82,0.00,,FEW029,0.00,VWS V14.00,2013-07-13 03:10:00,
2013-07-12 23:15:00,67.0,61.0,30.12,West,271,0.0,0.0,81,0.00,,FEW029,0.00,VWS V14.00,2013-07-13 03:15:00,
2013-07-12 23:20:00,67.0,61.0,30.12,West,271,0.0,0.0,81,0.00,,FEW029,0.00,VWS V14.00,2013-07-13 03:20:00,
2013-07-12 23:25:00,67.0,61.3,30.12,West,271,0.0,0.0,82,0.00,,FEW029,0.00,VWS V14.00,2013-07-13 03:25:00,
2013-07-12 23:30:00,67.0,61.0,30.12,West,271,0.0,0.0,81,0.00,,FEW029,0.00,VWS V14.00,2013-07-13 03:30:00,
2013-07-12 23:35:00,67.0,61.3,30.12,West,271,0.0,0.0,82,0.00,,FEW029,0.00,VWS V14.00,2013-07-13 03:35:00,
2013-07-12 23:40:00,66.8,61.2,30.12,West,271,0.0,0.0,82,0.00,,FEW029,0.00,VWS V14.00,2013-07-13 03:40:00,
2013-07-12 23:45:00,66.8,60.8,30.12,West,270,0.0,0.0,81,0.00,,FEW029,0.00,VWS V14.00,2013-07-13 03:45:00,
2013-07-12 23:51:00,66.8,60.8,30.12,West,270,0.0,0.0,81,0.00,,FEW029,0.00,VWS V14.00,2013-07-13 03:51:00,
2013-07-12 23:56:00,66.8,60.8,30.12,West,271,0.0,0.0,81,0.00,,FEW029,0.00,VWS V14.00,2013-07-13 03:56:00,